Regional Weather Roundup
Issued by NWS Lake Charles, LA

Current Version | Previous Version | Text Only | Print | Product List | Glossary On
Versions: 1 2 3 4 5 6 7 8 9 10 11 12 13 14 15 16 17 18 19 20 21 22 23 24 25 26 27 28 29
000
ASUS44 KLCH 181010
RWRLCH
RWRLCH
REGIONAL WEATHER ROUNDUP
NATIONAL WEATHER SERVICE LAKE CHARLES LA
500 AM CDT FRI APR 18 2014

Note: "fair" indicates few or no clouds below 12,000 feet with no
significant weather and/or obstructions to visibility.


ACROSS SOUTHEAST TEXAS

CITY           SKY/WX    TMP DP  RH WIND       PRES   REMARKS
BEAUMONT       MOCLDY    56  53  90 N6        30.12R
BEAUMONT CITY  CLOUDY    54  52  94 N3        30.12F
ORANGE         SUNNY     54  53  97 NW6       30.13S
JASPER         CLOUDY    53  51  93 CALM      30.16S
$$

ACROSS CENTRAL LOUISIANA

CITY           SKY/WX    TMP DP  RH WIND       PRES   REMARKS
LEESVILLE      CLEAR     52  50  93 CALM      30.12S
FULLERTON      CLOUDY    55  51  86 CALM      30.10R
ALEXANDRIA INT MOCLDY    52  51  97 NW6       30.11R FOG
ESLER FIELD    FOG       51  49  92 CALM      30.11S VSB 1/2
DERIDDER       PTSUNNY   51  49  95 CALM      30.14S
OAKDALE        PTSUNNY   52  51  95 CALM      30.11S FOG
OPELOUSAS        N/A     55  54  98 N3        30.09F
$$

ACROSS SOUTHWEST AND SOUTH CENTRAL LOUISIANA

CITY           SKY/WX    TMP DP  RH WIND       PRES   REMARKS
SULPHUR        SUNNY     55  54  97 N5        30.11R
LAKE CHARLES   MOCLDY    56  54  93 N6        30.10S
CHENNAULT INT  NOT AVBL
CAMERON PHI      N/A     55  55 100 NE6       30.10R
DEQUINCY         N/A     50  49  97 CALM      30.12S
JENNINGS       CLOUDY    58  57  96 N5        30.10R
LAFAYETTE      CLOUDY    61  58  90 N5        30.09S
NEW IBERIA     CLOUDY    61  59  93 N6        30.09S
ABBEVILLE      CLOUDY   N/A N/A N/A CALM      30.09S HAZE
PATTERSON      CLOUDY    63  59  88 N6          N/A
SALT POINT       N/A     65  61  87 CALM      30.07R
$$

SELECTED SITES ACROSS THE REGION

CITY           SKY/WX    TMP DP  RH WIND       PRES   REMARKS
HOUSTON BUSH   CLOUDY    60  54  80 N5        30.14R
HOUSTON HOBBY  CLOUDY    61  54  77 NE5       30.14R
GALVESTON      CLOUDY    60  57  89 N10       30.13R
COLLEGE STAT   CLOUDY    60  59  96 N7        30.15S FOG
CONROE         CLOUDY    57  54  89 CALM      30.15R
HUNTSVILLE     CLOUDY    58  54  86 CALM      30.15S
LUFKIN         CLOUDY    58  52  80 N5        30.15S
SHREVEPORT     CLOUDY    56  53  90 N5        30.17R
MONROE         CLOUDY    56  53  90 NE5       30.15F
NATCHEZ MS     CLEAR     52  48  87 N3        30.11S
BATON ROUGE    CLOUDY    61  54  77 VRB5      30.10R
N.O. INTL ARPT LGT RAIN  63  60  90 NE9       30.07R
SLIDELL        CLOUDY    61  58  90 NE5       30.06R
$$

MARINE REPORTS

STATION/POSITION TIME  TEMP    WIND        PRES    VSBY  WAVE
                       AIR SEA DIR/SP/G                  HT/PER
                 (UTC) (F)     (DEG/KT/KT) (MB)    (MI)  (FT/S)
BUOY 30 S HIGH I 1000   63 65   30/ 12/ 16 1018.9R         4/ 7
SEA RIM ST PARK  1000   54     350/  6/  6 1020.2R
PORT ARTHUR      1000      65  350/  6/  7 1019.6R
SABINE PASS N    1000   56 63   10/  6/  8 1019.1R
TEXAS POINT      1000   55 63  360/  8/ 10 1019.3R
CALCASIEU PASS   1000   58 62   60/  7/  7 1019.6F
LK CHARLES BEACH 1000   56 65              1020.1R
MARSH ISLAND     0900   61      30/  9/ 11   N/A
FRESH WATER LOCK 1000   60 62  360/  7/  9 1018.3R
AMERADA PASS     1000   62 60   40/  2/  3 1018.1S
$$



USA.gov is the U.S. government's official web portal to all federal, state and local government web resources and services.